FW8456 Weather Reports


time (UTC)temp
C
wind
direction
speed
KPH
gust
KPH
rain 1hr
cm
rain 24hr
cm
rain mn
cm
humidity
%
barometer
mb
20260509032659 3 225 3.2 12.9 0.00 0.00 0.00 73 1020.7
20260509032150 4 270 1.6 14.5 0.00 0.00 0.00 73 1020.7
20260509031639 3 203 3.2 17.7 0.00 0.00 0.00 73 1020.9
20260509030619 4 248 3.2 14.5 0.00 0.00 0.00 72 1020.2
20260509030109 4 225 4.8 14.5 0.00 0.00 0.00 72 1020.4
20260509025559 4 248 1.6 14.5 0.00 0.00 0.00 72 1020.3
20260509025049 4 225 6.4 14.5 0.00 0.00 0.00 72 1020.1
20260509024538 3 225 4.8 14.5 0.00 0.00 0.00 72 1019.5
20260509024029 4 225 6.4 14.5 0.00 0.00 0.00 71 1019.8
20260509023518 4 225 6.4 17.7 0.00 0.00 0.00 71 1019.8
20260509023016 4 225 3.2 17.7 0.00 0.00 0.00 70 1019.7
20260509022458 4 225 4.8 22.5 0.00 0.00 0.00 70 1019.5
20260509021948 4 293 3.2 22.5 0.00 0.00 0.00 69 1019.3
20260509021438 5 270 6.4 14.5 0.00 0.00 0.00 68 1019.1
20260509020928 4 248 6.4 14.5 0.00 0.00 0.00 69 1019.1
20260509020418 4 248 3.2 14.5 0.00 0.00 0.00 69 1018.9
20260509015907 4 203 3.2 14.5 0.00 0.00 0.00 70 1018.9
20260509015400 4 225 4.8 17.7 0.00 0.00 0.00 70 1018.8
20260509014847 4 203 3.2 17.7 0.00 0.00 0.00 70 1018.4
20260509014337 4 225 0.0 14.5 0.00 0.00 0.00 73 1018.3
20260509013827 4 248 3.2 14.5 0.00 0.00 0.00 75 1018.5
20260509012256 4 225 3.2 17.7 0.00 0.00 0.00 78 1018.2
20260509011746 4 248 0.0 17.7 0.00 0.00 0.00 79 1018.2
20260509011237 4 225 8.0 17.7 0.00 0.00 0.00 78 1018.1
20260509010726 4 90 3.2 20.9 0.00 0.00 0.00 81 1017.8
20260509010217 4 248 4.8 22.5 0.00 0.00 0.00 83 1018.0
20260509005706 4 225 11.3 22.5 0.00 0.00 0.00 83 1017.6
20260509005157 4 270 3.2 17.7 0.00 0.00 0.00 81 1017.4
20260509004645 4 225 1.6 20.9 0.00 0.00 0.00 80 1017.4
20260509004136 4 203 6.4 20.9 0.00 0.00 0.00 77 1017.5
20260509003625 4 248 3.2 17.7 0.00 0.00 0.00 79 1017.0
20260509003117 4 203 3.2 27.4 0.00 0.00 0.00 79 1017.1
20260509002605 4 248 12.9 27.4 0.00 0.00 0.00 79 1017.3
20260509002055 4 203 6.4 25.7 0.00 0.00 0.00 79 1016.9
20260509001035 4 248 6.4 20.9 0.00 0.00 0.00 78 1016.9
20260509000525 5 203 4.8 24.1 0.00 0.00 0.00 77 1016.6
20260509000015 5 225 8.0 25.7 0.00 0.00 0.00 77 1016.6
20260508235504 5 203 9.7 25.7 0.00 0.00 0.00 77 1016.5
20260508234955 5 248 6.4 22.5 0.00 0.00 0.00 77 1016.5
20260508233934 5 203 6.4 29.0 0.00 0.00 0.00 75 1016.3
20260508233424 5 225 8.0 29.0 0.00 0.00 0.00 75 1016.2
20260508232914 5 225 19.3 32.2 0.00 0.00 0.00 75 1016.0
20260508232404 6 203 19.3 35.4 0.00 0.00 0.00 75 1015.6
20260508231854 6 248 17.7 35.4 0.00 0.00 0.00 74 1015.4
20260508231344 6 203 8.0 29.0 0.00 0.00 0.00 73 1015.4
20260508230834 6 225 16.1 29.0 0.00 0.00 0.00 72 1015.2
20260508230323 6 225 17.7 27.4 0.00 0.00 0.00 70 1015.0
20260508225306 7 225 9.7 20.9 0.00 0.00 0.00 63 1014.0
20260508224753 8 225 9.7 17.7 0.00 0.00 0.00 62 1013.9
20260508224243 8 180 11.3 17.7 0.00 0.00 0.00 60 1013.7
20260508223733 9 158 11.3 14.5 0.00 0.00 0.00 56 1013.4
20260508222712 10 225 1.6 11.3 0.00 0.00 0.00 53 1013.0
20260508222203 10 203 4.8 11.3 0.00 0.00 0.00 52 1012.8
20260508221653 10 203 0.0 9.7 0.00 0.00 0.00 52 1012.6
20260508221143 10 158 0.0 6.4 0.00 0.00 0.00 52 1012.6
20260508220633 10 203 0.0 9.7 0.00 0.00 0.00 52 1012.1
20260508220123 10 203 0.0 9.7 0.00 0.00 0.00 52 1012.1
20260508215612 10 180 0.0 9.7 0.00 0.00 0.00 51 1012.1
20260508215102 10 180 0.0 11.3 0.00 0.00 0.00 51 1012.0
20260508214551 10 203 0.0 11.3 0.00 0.00 0.00 50 1011.9
20260508214041 10 158 0.0 11.3 0.00 0.00 0.00 50 1012.0
20260508213532 11 180 0.0 11.3 0.00 0.00 0.00 49 1011.6
20260508213021 11 158 6.4 11.3 0.00 0.00 0.00 48 1011.6
20260508212511 11 180 0.0 6.4 0.00 0.00 0.00 48 1011.5
20260508212001 11 135 0.0 9.7 0.00 0.00 0.00 47 1011.1
20260508211451 11 135 0.0 9.7 0.00 0.00 0.00 47 1011.0
20260508210942 11 203 0.0 11.3 0.00 0.00 0.00 46 1010.9
20260508210431 12 158 6.4 11.3 0.00 0.00 0.00 44 1010.7
20260508205921 12 180 3.2 9.7 0.00 0.00 0.00 44 1010.6
20260508205410 13 158 0.0 0.0 0.00 0.00 0.00 41 1010.6
20260508204902 14 203 0.0 0.0 0.00 0.00 0.00 36 1010.7
20260508204350 14 248 0.0 0.0 0.00 0.00 0.00 36 1010.4
20260508203331 13 293 0.0 0.0 0.00 0.00 0.00 38 1010.4
20260508202820 14 203 0.0 0.0 0.00 0.00 0.00 37 1010.5
20260508202310 14 225 0.0 0.0 0.00 0.00 0.00 36 1010.3
20260508201800 14 248 0.0 0.0 0.00 0.00 0.00 36 1010.1
20260508201250 14 158 0.0 6.4 0.00 0.00 0.00 35 1010.4
20260508200740 14 225 0.0 6.4 0.00 0.00 0.00 37 1010.5
20260508200230 14 225 0.0 6.4 0.00 0.00 0.00 36 1010.5
20260508195721 15 203 0.0 6.4 0.00 0.00 0.00 35 1010.5
20260508195209 15 203 0.0 0.0 0.00 0.00 0.00 36 1010.5
20260508194700 15 225 0.0 0.0 0.00 0.00 0.00 34 1010.5
20260508194149 15 248 0.0 0.0 0.00 0.00 0.00 35 1010.6
20260508193639 15 90 0.0 0.0 0.00 0.00 0.00 34 1010.6
20260508193129 15 248 0.0 3.2 0.00 0.00 0.00 35 1010.5
20260508192618 15 180 0.0 6.4 0.00 0.00 0.00 35 1010.6
20260508192109 15 203 0.0 6.4 0.00 0.00 0.00 34 1010.5
20260508191048 15 203 0.0 6.4 0.00 0.00 0.00 35 1010.3
20260508190539 15 270 0.0 11.3 0.00 0.00 0.00 35 1010.4
20260508190029 14 225 0.0 11.3 0.00 0.00 0.00 35 1010.6
20260508185008 14 225 4.8 9.7 0.00 0.00 0.00 35 1010.9
20260508184458 14 203 0.0 9.7 0.00 0.00 0.00 36 1010.8
20260508183948 14 248 1.6 6.4 0.00 0.00 0.00 36 1011.0
20260508183439 15 248 0.0 9.7 0.00 0.00 0.00 36 1010.8
20260508182928 15 203 3.2 9.7 0.00 0.00 0.00 35 1010.6
20260508182417 15 248 3.2 9.7 0.00 0.00 0.00 36 1010.8
20260508181908 14 225 0.0 9.7 0.00 0.00 0.00 36 1010.6
20260508180847 14 225 0.0 11.3 0.00 0.00 0.00 35 1010.8
20260508175827 14 203 0.0 11.3 0.00 0.00 0.00 35 1010.8
20260508175317 15 225 3.2 11.3 0.00 0.00 0.00 36 1011.0
20260508174807 14 225 0.0 9.7 0.00 0.00 0.00 36 1011.1
20260508174256 15 180 0.0 6.4 0.00 0.00 0.00 36 1011.0
20260508173746 14 248 0.0 6.4 0.00 0.00 0.00 37 1011.2
20260508173237 13 248 0.0 6.4 0.00 0.00 0.00 36 1011.3
20260508172217 14 225 0.0 6.4 0.00 0.00 0.00 37 1011.7
20260508171706 13 248 0.0 11.3 0.00 0.00 0.00 37 1011.5
20260508171156 13 248 0.0 11.3 0.00 0.00 0.00 42 1011.3
20260508170136 13 248 0.0 11.3 0.00 0.00 0.00 43 1011.7
20260508165626 13 158 3.2 11.3 0.00 0.00 0.00 42 1012.0
20260508165115 13 270 0.0 12.9 0.00 0.00 0.00 45 1012.2
20260508164056 13 248 3.2 17.7 0.00 0.00 0.00 43 1012.2
20260508163546 13 225 6.4 17.7 0.00 0.00 0.00 44 1012.3
20260508162525 12 225 6.4 17.7 0.00 0.00 0.00 46 1013.0
20260508162015 12 203 3.2 14.5 0.00 0.00 0.00 45 1012.7
20260508161514 12 225 4.8 22.5 0.00 0.00 0.00 42 1012.5
20260508160955 12 203 11.3 22.5 0.00 0.00 0.00 44 1012.7
20260508160445 12 225 3.2 17.7 0.00 0.00 0.00 44 1012.8
20260508155934 12 225 8.0 17.7 0.00 0.00 0.00 44 1013.0
20260508155424 12 248 6.4 17.7 0.00 0.00 0.00 43 1013.1
20260508154914 12 248 6.4 20.9 0.00 0.00 0.00 44 1012.8
20260508152834 12 225 3.2 12.9 0.00 0.00 0.00 43 1013.3
20260508152324 12 248 3.2 12.9 0.00 0.00 0.00 44 1013.4
20260508151813 11 225 6.4 22.5 0.00 0.00 0.00 45 1013.5
20260508151304 11 225 6.4 22.5 0.00 0.00 0.00 45 1013.6
20260508150244 11 225 3.2 17.7 0.00 0.00 0.00 43 1013.7
20260508145734 11 225 3.2 17.7 0.00 0.00 0.00 42 1014.0
20260508144203 11 225 6.4 20.9 0.00 0.00 0.00 42 1014.0
20260508142634 11 248 14.5 25.7 0.00 0.00 0.00 42 1014.0
20260508142122 10 248 14.5 25.7 0.00 0.00 0.00 42 1014.2
20260508141102 10 225 14.5 24.1 0.00 0.00 0.00 41 1014.5
20260508140552 10 225 6.4 22.5 0.00 0.00 0.00 41 1014.4
20260508140047 10 225 6.4 22.5 0.00 0.00 0.00 41 1014.6
20260508135021 10 225 3.2 22.5 0.00 0.00 0.00 40 1014.5
20260508134513 10 248 9.7 22.5 0.00 0.00 0.00 39 1014.6
20260508134002 9 225 3.2 12.9 0.00 0.00 0.00 39 1014.8
20260508133450 8 225 3.2 9.7 0.00 0.00 0.00 39 1014.6
20260508132714 9 135 4.8 17.7 0.00 0.00 0.00 38 1014.7
20260508130633 8 270 6.4 17.7 0.00 0.00 0.00 34 1014.7
20260508130123 8 225 8.0 17.7 0.00 0.00 0.00 34 1014.5
20260508125614 8 248 4.8 17.7 0.00 0.00 0.00 35 1014.5
20260508125103 7 225 4.8 14.5 0.00 0.00 0.00 36 1014.6
20260508124553 7 248 4.8 14.5 0.00 0.00 0.00 38 1014.5
20260508124043 7 248 3.2 14.5 0.00 0.00 0.00 39 1014.9
20260508123533 7 135 0.0 9.7 0.00 0.00 0.00 43 1014.7
20260508123022 6 203 0.0 9.7 0.00 0.00 0.00 44 1014.9
20260508122002 6 248 1.6 11.3 0.00 0.00 0.00 44 1014.7
20260508121453 6 248 0.0 9.7 0.00 0.00 0.00 45 1014.5
20260508120942 6 203 0.0 9.7 0.00 0.00 0.00 45 1014.6
20260508120432 7 225 1.6 9.7 0.00 0.00 0.00 45 1014.6
20260508115922 6 180 1.6 11.3 0.00 0.00 0.00 46 1014.7
20260508115412 6 248 3.2 11.3 0.00 0.00 0.00 48 1014.8
20260508114903 6 203 0.0 6.4 0.00 0.00 0.00 51 1014.7
20260508114352 5 203 0.0 6.4 0.00 0.00 0.00 53 1014.6
20260508113842 5 248 0.0 3.2 0.00 0.00 0.00 53 1014.4
20260508113331 5 203 0.0 3.2 0.00 0.00 0.00 54 1014.4
20260508112822 4 203 0.0 11.3 0.00 0.00 0.00 55 1014.4
20260508112311 4 68 1.6 11.3 0.00 0.00 0.00 55 1014.4
20260508111250 4 90 0.0 3.2 0.00 0.00 0.00 56 1014.0
20260508110231 4 225 0.0 11.3 0.00 0.00 0.00 56 1014.1
20260508105721 4 248 3.2 11.3 0.00 0.00 0.00 55 1013.9
20260508104702 4 225 0.0 11.3 0.00 0.00 0.00 55 1014.1
20260508104149 4 180 0.0 0.0 0.00 0.00 0.00 54 1013.9
20260508103718 4 248 0.0 6.4 0.00 0.00 0.00 54 1014.1
20260508103208 4 270 0.0 6.4 0.00 0.00 0.00 54 1013.9
20260508102700 5 338 0.0 6.4 0.00 0.00 0.00 54 1014.0
20260508102149 5 225 0.0 11.3 0.00 0.00 0.00 53 1014.0
20260508101640 5 248 0.0 11.3 0.00 0.00 0.00 53 1014.2
20260508101128 5 203 4.8 11.3 0.00 0.00 0.00 52 1014.0
20260508095559 5 248 1.6 12.9 0.00 0.00 0.00 52 1014.0
20260508095048 5 203 3.2 12.9 0.00 0.00 0.00 52 1014.1
20260508094534 5 225 4.8 12.9 0.00 0.00 0.00 51 1014.1
20260508094027 5 203 4.8 11.3 0.00 0.00 0.00 52 1014.1
20260508093517 5 180 0.0 11.3 0.00 0.00 0.00 53 1013.9
20260508093007 5 203 4.8 14.5 0.00 0.00 0.00 52 1014.0
20260508092457 5 225 3.2 14.5 0.00 0.00 0.00 52 1014.0
20260508091947 5 248 3.2 12.9 0.00 0.00 0.00 52 1013.6
20260508091436 5 270 1.6 12.9 0.00 0.00 0.00 52 1013.7
20260508090927 5 203 0.0 12.9 0.00 0.00 0.00 52 1013.5
20260508090417 5 225 1.6 11.3 0.00 0.00 0.00 52 1013.4
20260508085357 5 203 1.6 11.3 0.00 0.00 0.00 51 1013.6
20260508084847 5 225 3.2 11.3 0.00 0.00 0.00 51 1013.3
20260508084337 5 248 3.2 11.3 0.00 0.00 0.00 51 1013.5
20260508083826 5 203 1.6 11.3 0.00 0.00 0.00 51 1013.5
20260508083316 5 203 3.2 14.5 0.00 0.00 0.00 51 1013.5
20260508082806 5 248 3.2 14.5 0.00 0.00 0.00 51 1013.7
20260508082256 5 203 3.2 17.7 0.00 0.00 0.00 51 1013.5
20260508080215 5 225 4.8 12.9 0.00 0.00 0.00 49 1013.2
20260508075705 5 225 3.2 12.9 0.00 0.00 0.00 49 1013.1
20260508075155 5 203 3.2 14.5 0.00 0.00 0.00 49 1013.3
20260508074646 5 203 6.4 20.9 0.00 0.00 0.00 48 1012.8
20260508074135 5 203 3.2 20.9 0.00 0.00 0.00 49 1013.4
20260508073624 5 225 6.4 17.7 0.00 0.00 0.00 48 1013.1
20260508072604 5 203 6.4 17.7 0.00 0.00 0.00 48 1013.3
20260508072054 5 203 4.8 14.5 0.00 0.00 0.00 48 1013.2
20260508071544 5 248 4.8 12.9 0.00 0.00 0.00 48 1013.3
20260508071034 5 270 4.8 14.5 0.00 0.00 0.00 48 1013.3
20260508070524 5 248 6.4 17.7 0.00 0.00 0.00 47 1013.6
20260508065503 5 203 6.4 14.5 0.00 0.00 0.00 47 1013.4
20260508064446 5 225 1.6 14.5 0.00 0.00 0.00 47 1013.6
20260508063933 5 203 3.2 14.5 0.00 0.00 0.00 48 1013.6
20260508063422 5 180 3.2 0.0 0.00 0.00 0.00 48 1013.9
20260508063206 5 270 1.6 0.0 0.00 0.00 0.00 49 1013.9
20260508063005 5 270 1.6 11.3 0.00 0.00 0.00 48 1013.9
20260508062454 5 225 1.6 9.7 0.00 0.00 0.00 49 1013.8
20260508061944 5 225 1.6 11.3 0.00 0.00 0.00 48 1014.0
20260508060924 5 203 0.0 9.7 0.00 0.00 0.00 48 1014.0
20260508060414 5 180 1.6 9.7 0.00 0.00 0.00 48 1014.0
20260508055904 5 203 0.0 9.7 0.00 0.00 0.00 47 1014.1
20260508055354 5 225 1.6 11.3 0.00 0.00 0.00 47 1014.2
20260508054844 6 225 0.0 11.3 0.00 0.00 0.00 45 1014.2
20260508054334 5 248 0.0 11.3 0.00 0.00 0.00 47 1014.2
20260508053823 5 270 1.6 11.3 0.00 0.00 0.00 46 1014.4
20260508053313 5 203 0.0 11.3 0.00 0.00 0.00 46 1014.6
20260508052803 6 248 3.2 11.3 0.00 0.00 0.00 45 1014.5
20260508052253 5 248 0.0 6.4 0.00 0.00 0.00 47 1014.8
20260508051233 5 203 0.0 6.4 0.00 0.00 0.00 47 1014.8
20260508050723 6 225 0.0 9.7 0.00 0.00 0.00 45 1014.9
20260508050212 6 270 0.0 9.7 0.00 0.00 0.00 45 1014.8
20260508045704 6 248 0.0 6.4 0.00 0.00 0.00 45 1015.0
20260508045152 6 225 0.0 0.0 0.00 0.00 0.00 46 1015.1
20260508044643 6 270 0.0 6.4 0.00 0.00 0.00 46 1015.3
20260508044132 6 203 0.0 6.4 0.00 0.00 0.00 45 1015.1
20260508043622 6 225 0.0 6.4 0.00 0.00 0.00 44 1015.1
20260508043112 6 225 0.0 6.4 0.00 0.00 0.00 44 1015.0
20260508042602 6 225 0.0 6.4 0.00 0.00 0.00 43 1015.2
20260508041539 7 203 0.0 12.9 0.00 0.00 0.00 42 1015.4
20260508041032 7 225 1.6 11.3 0.00 0.00 0.00 41 1015.1
20260508040521 7 158 1.6 9.7 0.00 0.00 0.00 40 1015.1
20260508035501 7 203 0.0 9.7 0.00 0.00 0.00 40 1015.1
20260508034951 7 225 1.6 11.3 0.00 0.00 0.00 40 1015.2
20260508034440 7 203 0.0 11.3 0.00 0.00 0.00 40 1015.2
20260508033931 7 225 3.2 11.3 0.00 0.00 0.00 38 1015.0
20260508033420 7 180 0.0 9.7 0.00 0.00 0.00 39 1014.9